N883MA KWYS-KWYS

Flight info

Callsign N883MA
Flight time N/A
Altitude 1500
Route YELLOSWSTONE LAKE
Aircraft PA18/L-S/C

Departure

Time 2026-05-09 04:38
Airport Yellowstone Airport (KWYS)

Arrival

Time N/A
Airport Yellowstone Airport (KWYS)
Time Latitude Longitude Altitude Speed Heading
2026-05-09 03:57 44.68883 -111.11366 6636 ft 0 kts 206°
2026-05-09 04:30 44.68876 -111.11377 6639 ft 4 kts 263°
2026-05-09 04:31 44.68884 -111.11433 6638 ft 5 kts 254°
2026-05-09 04:31 44.68857 -111.11467 6638 ft 5 kts 221°
2026-05-09 04:31 44.68860 -111.11518 6637 ft 8 kts 292°
2026-05-09 04:31 44.68905 -111.11550 6635 ft 8 kts 22°
2026-05-09 04:32 44.68955 -111.11517 6634 ft 7 kts 25°
2026-05-09 04:32 44.69000 -111.11486 6635 ft 7 kts 27°
2026-05-09 04:32 44.69047 -111.11453 6634 ft 8 kts 26°
2026-05-09 04:32 44.69099 -111.11414 6633 ft 9 kts 29°
2026-05-09 04:33 44.69153 -111.11381 6633 ft 8 kts 24°
2026-05-09 04:33 44.69203 -111.11346 6635 ft 10 kts 29°
2026-05-09 04:33 44.69271 -111.11298 6636 ft 12 kts 25°
2026-05-09 04:33 44.69352 -111.11244 6636 ft 13 kts 24°
2026-05-09 04:34 44.69433 -111.11183 6638 ft 13 kts 30°
2026-05-09 04:34 44.69517 -111.11127 6637 ft 14 kts 24°
2026-05-09 04:34 44.69607 -111.11065 6634 ft 13 kts 26°
2026-05-09 04:34 44.69684 -111.11015 6632 ft 12 kts 27°
2026-05-09 04:35 44.69758 -111.10961 6630 ft 11 kts 25°
2026-05-09 04:35 44.69820 -111.10946 6629 ft 7 kts 319°
2026-05-09 04:35 44.69826 -111.10955 6627 ft 0 kts 300°
2026-05-09 04:36 44.69829 -111.10965 6628 ft 7 kts 295°
2026-05-09 04:36 44.69850 -111.11052 6631 ft 10 kts 262°
2026-05-09 04:37 44.69822 -111.11090 6632 ft 0 kts 207°
2026-05-09 04:37 44.69683 -111.11182 6648 ft 42 kts 205°
2026-05-09 04:37 44.69422 -111.11393 6773 ft 46 kts 210°
2026-05-09 04:37 44.69122 -111.11626 6905 ft 54 kts 208°
2026-05-09 04:38 44.68759 -111.11907 7011 ft 66 kts 207°
2026-05-09 04:38 44.68343 -111.12216 7180 ft 68 kts 209°
2026-05-09 04:38 44.67912 -111.12510 7352 ft 71 kts 205°
2026-05-09 04:38 44.67451 -111.12782 7522 ft 73 kts 205°
2026-05-09 04:39 44.66975 -111.13071 7713 ft 75 kts 204°
2026-05-09 04:39 44.66473 -111.13261 7875 ft 77 kts 181°
2026-05-09 04:39 44.66010 -111.12967 8009 ft 73 kts 129°
2026-05-09 04:39 44.65782 -111.12315 8151 ft 75 kts 103°
2026-05-09 04:40 44.65638 -111.11636 8309 ft 75 kts 111°
2026-05-09 04:40 44.65484 -111.10934 8446 ft 73 kts 94°
2026-05-09 04:40 44.65406 -111.10218 8608 ft 76 kts 92°
2026-05-09 04:40 44.65325 -111.09473 8766 ft 79 kts 94°
2026-05-09 04:41 44.65232 -111.08708 8885 ft 81 kts 93°